Location: Songkhla
(7.2000°N, 100.6000°E)
Time: 07:39:18
(UTC+07:00)

Aurora 2 Rocket - Pass Details

Date: 16 April 2026
Orbit: 384 x 1528 km, 25.0° (Epoch: 17 May)

Event Time Altitude Azimuth Distance (km) Brightness Sun altitude
Rises 19:54:56 0° 233° (SW) 3,514 7.0 -22.4°
Reaches altitude 10° 19:57:18 10° 229° (SW) 2,732 6.3 -22.9°
Maximum altitude 20:04:04 58° 151° (SSE) 1,384 4.0 -24.6°
Enters shadow 20:06:06 47° 105° (ESE) 1,624 4.1 -25.1°
